Regional Weather Roundup
Issued by NWS

Home | Current Version | Previous Version | Graphics & Text | Print | Product List | Glossary On
Versions: 1 2 3 4 5 6 7 8 9 10 11 12 13 14 15 16 17 18 19 20 21 22 23 24 25 26 27 28 29 30 31 32 33 34 35 36 37 38 39 40 41 42 43 44 45 46 47 48 49 50
000
ASUS43 KBIS 191902
RWRND

NORTH DAKOTA REGIONAL WEATHER ROUNDUP
NATIONAL WEATHER SERVICE BISMARCK ND
100 PM CST SUN NOV 19 2017

NOTE: "FAIR" INDICATES FEW OR NO CLOUDS BELOW 12,000 FEET WITH NO
SIGNIFICANT WEATHER AND/OR OBSTRUCTIONS TO VISIBILITY.


NDZ001>003-009>011-017-192000-
NORTHWEST NORTH DAKOTA

CITY           SKY/WX    TMP DP  RH WIND       PRES   REMARKS
WILLISTON      CLOUDY    37  24  59 S9        29.80F
MINOT          CLOUDY    40  25  55 W7        29.77F
$$

NDZ018>021-031>035-040>046-192000-
SOUTHWEST NORTH DAKOTA

CITY           SKY/WX    TMP DP  RH WIND       PRES   REMARKS
BISMARCK       CLOUDY    48  26  42 W9        29.84F
DICKINSON      CLOUDY    43  21  41 W14       29.81F
GARRISON         N/A     39  25  57 W9        29.80F
HETTINGER ARPT CLOUDY    43  19  38 W15       29.86F
$$

NDZ004>008-012>016-024-026-027-054-192000-
NORTHEAST NORTH DAKOTA

CITY           SKY/WX    TMP DP  RH WIND       PRES   REMARKS
GRAND FORKS    MOSUNNY   30  23  75 SW8       29.81F
GRND FRKS AFB  SUNNY     31  22  68 SW8       29.81F
DEVILS LAKE    SUNNY     34  26  72 W7        29.79F
$$

NDZ022-023-025-028>030-036>039-047>053-192000-
SOUTHEAST NORTH DAKOTA

CITY           SKY/WX    TMP DP  RH WIND       PRES   REMARKS
FARGO          SUNNY     42  24  49 S12       29.82F
JAMESTOWN      CLOUDY    43  25  49 W12       29.80F
$$





USA.gov is the U.S. government's official web portal to all federal, state and local government web resources and services.